Lid_Strength_Index
3 3 3 3 4 4 4 4 4 4 4 4 4 4 4 4 4 4 4 4 3 3 3 3 2 2 4 9 9 4 -1 -2 -0 1 2 3 5 5 7 7 6 7 7 5 5 5 5
3 3 3 3 4 4 4 4 4 4 4 4 4 4 4 4 4 4 4 4 3 3 3 3 2 3 6 11 7 4 -0 0 1 2 3 4 4 5 8 9 8 7 6 6 6 5 5
3 3 3 3 4 4 4 4 4 4 4 4 4 4 4 4 4 4 4 4 4 3 3 2 2 3 7 9 5 4 4 1 0 1 4 4 5 5 7 10 8 7 8 7 7 7 6
3 3 4 4 4 4 4 4 4 4 4 4 4 4 4 4 4 4 4 4 3 2 2 2 2 3 9 6 4 4 4 4 2 1 3 3 4 6 7 8 8 9 9 9 6 6 6
4 4 4 4 4 4 4 4 4 4 4 4 4 4 4 4 4 4 4 4 2 1 1 1 3 6 9 3 5 4 3 4 3 2 2 3 4 6 8 9 11 9 10 9 9 6 7
4 4 4 4 4 4 4 4 4 4 4 4 4 4 4 4 3 3 3 3 -1 -0 0 1 1 6 6 7 6 5 5 4 5 3 4 5 6 8 9 10 13 11 10 10 10 8 8
4 4 4 4 4 4 4 4 4 4 4 4 4 4 4 3 3 3 3 5 6 7 7 9 8 7 8 6 6 7 6 5 4 4 7 5 8 10 10 9 9 8 10 9 9 7 8
4 4 4 4 4 4 4 4 4 4 4 4 3 3 3 3 3 3 5 6 7 7 9 8 8 8 7 7 9 7 6 7 7 8 6 7 9 7 8 8 8 8 9 10 9 8 8
4 4 4 4 4 4 4 3 3 3 3 3 3 2 2 3 3 5 5 6 4 6 10 9 8 8 7 7 8 8 7 7 7 8 8 8 7 6 7 8 9 9 9 10 10 9 8
4 4 4 4 4 4 4 3 3 2 2 2 2 2 2 3 6 6 5 5 4 6 11 9 8 7 7 7 8 6 6 8 8 8 8 8 7 7 7 8 7 10 9 9 10 9 13
4 4 4 4 4 4 3 3 2 2 2 2 2 2 3 3 5 6 5 4 5 8 15 8 8 5 7 8 7 6 5 7 9 8 8 9 9 8 8 8 8 8 8 9 10 11 10
4 4 4 4 4 3 3 3 2 2 2 2 2 2 3 5 5 4 4 5 7 11 15 10 8 9 9 8 8 7 7 6 7 8 8 8 7 7 6 7 7 7 8 9 9 10 13
4 4 4 4 4 3 3 3 2 2 2 2 3 3 3 4 6 4 4 7 11 14 10 11 11 10 10 10 9 9 8 9 10 11 11 9 8 7 7 7 7 8 9 12 14 14 13
4 4 4 4 3 3 4 3 3 2 2 3 3 4 3 3 3 4 7 8 14 12 12 10 11 11 12 11 10 9 10 10 9 10 11 12 12 9 7 7 8 9 8 11 16 15 13
4 4 4 4 3 3 4 3 3 2 3 3 4 4 4 4 4 6 8 12 13 12 11 11 11 12 12 11 11 10 11 11 10 9 11 11 11 8 8 7 6 9 11 8 12 13 12
4 4 4 4 3 3 4 3 3 2 3 3 6 5 5 4 4 7 9 13 12 10 11 11 13 12 13 12 11 11 11 10 11 9 8 9 11 9 8 7 7 8 7 11 12 15 15
4 4 4 3 3 3 4 3 3 3 3 4 5 6 4 5 6 8 12 12 11 10 10 11 12 12 13 13 12 12 12 11 9 10 8 8 10 9 8 9 9 9 10 10 10 12 13
4 4 4 3 3 3 4 3 3 3 4 5 6 8 4 6 8 11 11 12 11 10 9 10 10 11 12 12 12 12 12 11 9 9 10 8 10 11 9 8 9 8 8 8 11 12 12
4 4 4 3 2 3 3 3 3 3 4 5 7 8 5 6 10 11 10 10 9 10 10 10 11 10 10 12 13 12 12 10 9 9 9 7 10 11 11 9 9 9 8 8 9 9 11
4 5 5 3 2 3 3 2 2 3 3 5 7 9 7 8 9 10 11 11 10 8 9 10 10 10 11 12 11 12 12 10 9 8 6 7 9 11 12 11 11 11 10 8 9 10 10
4 5 5 3 2 3 3 2 2 2 3 5 8 10 9 11 10 9 9 9 10 10 8 9 11 11 11 13 12 12 11 10 9 8 9 8 11 11 10 9 11 11 10 9 9 8 10
4 5 5 3 3 3 2 2 2 2 4 5 7 8 8 9 10 9 9 10 11 10 10 10 11 10 10 11 11 12 11 10 11 9 10 9 10 10 11 9 9 10 9 9 9 9 8
4 5 5 3 3 3 2 1 2 3 5 5 6 6 7 11 10 9 10 10 10 9 8 8 9 9 10 10 8 8 8 8 9 10 10 11 10 11 12 10 10 12 9 9 10 10 10
5 5 5 3 3 3 2 1 2 3 4 4 5 6 8 11 9 10 10 9 8 7 8 7 6 8 7 5 6 7 8 8 8 8 8 11 11 10 11 10 15 10 7 8 10 9 9
5 5 5 3 3 3 2 1 2 2 4 3 4 5 6 10 9 10 9 8 7 6 7 7 6 5 4 5 9 10 10 10 10 9 9 8 11 12 13 12 11 11 10 10 11 11 8
5 5 5 3 3 3 2 2 2 2 4 3 3 3 5 9 10 8 8 8 8 8 7 6 4 3 4 7 9 14 13 11 12 11 10 9 9 12 12 13 14 11 9 8 8 13 7
5 5 4 4 4 3 2 2 2 2 3 3 3 3 5 8 7 6 7 7 6 7 8 8 7 6 5 10 13 14 13 10 13 12 13 13 12 13 13 13 11 9 8 7 14 12 8
6 5 4 4 4 2 2 1 2 2 3 3 4 3 4 7 6 6 5 6 6 6 8 9 8 7 8 12 12 12 13 11 11 10 11 11 12 13 12 13 14 8 8 11 9 7 7
6 5 4 4 3 2 2 2 2 2 2 3 5 2 2 5 7 4 4 3 4 4 5 7 7 8 8 11 12 10 13 11 11 14 8 12 9 10 10 11 8 7 9 7 7 7 7